Terminal Aerodrome Forecast
Issued by NWS

Home | Current Version | Previous Version | Graphics & Text | Print | Product List | Glossary On
Versions: 1 2 3 4 5 6 7 8 9 10 11 12
000
FTUS43 KICT 260500
TAFCNU
TAF
KCNU 260520Z 2606/2706 18013KT P6SM SCT150
     FM261500 21017G25KT P6SM SCT150
     FM270200 18010KT P6SM BKN200=

USA.gov is the U.S. government's official web portal to all federal, state and local government web resources and services.